Showing default

WORLDVIEW 2, 35946

Orbit data source: Space-Track

WORLDVIEW 2, 35946 is a payload satellite owned by DigitalGlobe (US) in SSO that was launched on Thu, 08 Oct 2009 UTC via a DELTA 7920-10C launch vehicle from the Air Force Western Test Range (AFWTR). Payload-class satellites include a variety of spacecraft equipped with specific instruments for various scientific and technological missions. These include communications satellites like Starlink; space stations such as the ISS; scientific satellites like the Hubble; Earth observation satellites from companies like Planet Labs, Umbra, and HawkEye 360; GPS; miniature CubeSats for education and research; and military/defense satellites.

Loading next visibility...
Identifier
35946, 2009-055A
Orbit
SSO
Country
Flag of USUS
Related business
Manufacturer
Ball
Mission
Operational Commercial Imaging
Bus & Motor
BCP-5000, Unknown motor
Mass
2,615 kg wet, ~2,200 kg dry
Launch date (UTC)
2009-10-08 (16 years ago)
Launch vehicle
DELTA 7920-10C
Launch site
Air Force Western Test Range (AFWTR)
Object type
Payload
Rocket body
Debris
Shape & HBR
Hex Cyl + 2 Pan, 4.4 m
Radar Cross Section
13.188 m², Large (>1 m²)

Expand to show TLE details & history
Last TLE update: 10 hours ago

TLE from 10 hours ago
0 WORLDVIEW 2
1 35946U 09055A   25352.93189925  .00000136  00000-0  59786-4 0  9998
2 35946  98.4782  63.9314 0004983  55.5555 304.6102 14.37726626849749
Epoch: 2025-12-18T22:21Z
TLE epoch observation values (Epoch: 2025-12-18T22:21:56.095Z)
Latitude
-0.00004°
Longitude
0.66736°
Altitude
766.944 km
Speed
7.472 km/s
True Right ascension
04h 15m 43s
True Declination
0° 00' 00"
Sunlit
Object was in full shadow at epoch
Visualization orbit readout
Latitude
Unknown
Longitude
Unknown
Altitude
Unknown
Speed
Unknown
Apparent Right ascension
Unknown
Apparent Declination
Unknown
Sunlit
N/A
Visualization observer readout
Local Sidereal Time
07:43:53
Azimuth
Unknown
Elevation
Unknown
Doppler factor
Unknown
Orbital elements
Apogee altitude
766.702 km
Perigee altitude
759.585 km
Semi-major axis
7,141.28 km
Eccentricity
0.0005
Inclination
98.4782°
RAAN
63.9314°
Arg. of periapsis
55.5555°
True anomaly
304.56319°
Mean anomaly
304.6102°
Eccentric anomaly
304.5867°
Mean motion
3.59649 °/min
Orbital period
100.1 mins
BSTAR
0.000059786
Loading maneuver chart data...
Computing Atmospheric mass density...

Documentation

Showing up to 5 results
|